Location: Gulgong NSW 2852, Australia
(32.2976°S, 149.5548°E)
Time: 03:37:24
(UTC+10:00)

X-37B - Visible Passes

Search period start: 16 May 2021 00:00
Search period end: 26 May 2021 00:00
Orbit: 386 x 389 km, 45.0° (Epoch: 08 May)

Date Brightness Start Highest point End Pass type
(mag) Time Alt. Az. Time Alt. Az. Time Alt. Az.
16 May 3.3 06:03:45 10° S 06:04:28 11° S 06:05:11 10° SSE visible
18 May 3.1 05:42:54 10° SSW 05:44:39 14° SSE 05:46:25 10° SE visible
19 May 2.0 06:20:22 10° SW 06:23:19 32° SSE 06:26:15 10° E visible
20 May 2.6 05:23:48 17° S 05:24:46 20° SSE 05:27:14 10° ESE visible
21 May 0.9 06:00:30 13° SW 06:03:15 64° SSE 06:06:26 10° ENE visible
22 May 2.0 05:04:57 32° SE 05:04:57 32° SE 05:07:44 10° E visible
23 May 0.8 05:41:46 30° WSW 05:43:05 56° NW 05:46:13 10° NE visible
24 May 2.9 04:46:21 26° ENE 04:46:21 26° ENE 04:47:54 10° ENE visible
24 May 3.0 06:19:51 10° WNW 06:21:00 12° NW 06:22:10 10° NNW visible
25 May 2.2 05:23:19 23° NNW 05:23:19 23° NNW 05:25:29 10° NNE visible
